Regional Weather Roundup
Issued by NWS

Home | Current Version | Previous Version | Graphics & Text | Print | Product List | Glossary Off
Versions: 1 2 3 4 5 6 7 8 9 10 11 12 13 14 15 16 17 18 19 20 21 22 23 24 25 26 27 28 29 30 31 32 33 34 35 36 37 38 39 40 41 42 43 44 45 46 47 48 49 50

431
ASUS43 KDMX 120808
RWRIA

WEATHER ROUNDUP FOR IOWA
NATIONAL WEATHER SERVICE DES MOINES IA
200 AM CST FRI FEB 12 2016

NOTE: "FAIR" INDICATES FEW OR NO CLOUDS BELOW 12,000 FEET WITH NO
SIGNIFICANT WEATHER AND/OR OBSTRUCTIONS TO VISIBILITY.

* - THESE STATIONS ARE NOT NWS STATIONS...THUS NOT UNDER NWS
QUALITY CONTROL.  THEY ALSO DO NOT REPORT WEATHER SUCH
AS PRECIPITATION OR FOG.

IAZ001>003-012>014-020>022-031>034-043>046-120900-
   NORTHWEST IOWA

CITY           SKY/WX    TMP DP  RH WIND       PRES   REMARKS
CARROLL *      CLOUDY    18  16  93 NW7       30.22F WCI   8
CHEROKEE *     CLOUDY    10   9  92 CALM      30.25R
DENISON *      CLOUDY    18  16  93 CALM      30.21S
LE MARS *      PTCLDY    10   9  92 CALM      30.27S FOG
ORANGE CITY *  CLOUDY    12  12 100 CALM      30.23F
SHELDON *      CLOUDY    12  10  92 NW3       30.22S
SIOUX CITY     CLEAR     16  12  84 NW5       30.26S WCI   9
SPENCER        CLOUDY    14  10  84 W12       30.23R WCI   0
STORM LAKE *   CLEAR     12  12 100 NW12      30.22S WCI  -2
$$

IAZ055>058-069>071-079>083-090>094-120900-
   SOUTHWEST IOWA

CITY           SKY/WX    TMP DP  RH WIND       PRES   REMARKS
ATLANTIC *     CLOUDY    21  18  86 CALM      30.22F
AUDUBON *      PTCLDY    19  16  86 CALM      30.22R
CLARINDA *     CLOUDY    28  21  74 N5        30.23S WCI  23
COUNCIL BLFS * CLOUDY    23  21  93 N6        30.22S WCI  16
CRESTON *      CLOUDY    21  18  86 CALM      30.22R
HARLAN  *      CLOUDY    21  19  93 N5        30.25F WCI  15
LAMONI         CLOUDY    21  18  88 CALM      30.20S
RED OAK *      CLOUDY    25  21  86 N5        30.22S WCI  19
SHENANDOAH *   CLOUDY    28  25  86 N6        30.24R WCI  22
$$

IAZ047>049-059>061-072>074-084-120900-
   CENTRAL IOWA

CITY           SKY/WX    TMP DP  RH WIND       PRES   REMARKS
AMES           CLOUDY    17  14  88 W5        30.22S WCI  10
ANKENY *       CLOUDY    19  18  93 CALM      30.23S
BOONE *        CLOUDY    18  14  86 W7        30.20F WCI   8
CHARITON *     CLOUDY    19  18  93 CALM      30.21S
DES MOINES     FLURRIES  19  15  84 W3        30.22S
GRINNELL*      CLOUDY    19  18  93 SW5       30.21S WCI  13
KNOXVILLE *    CLOUDY    19  16  86 CALM      30.21R
MARSHALLTOWN   CLOUDY    17  14  88 W5        30.20F WCI  10
NEWTON *       CLOUDY    18  18 100 CALM      30.21F
PELLA *        CLOUDY    19  18  93 CALM      30.23S
$$

IAZ004>006-015-016-023>025-035-036-120900-
   NORTH CENTRAL IOWA

CITY           SKY/WX    TMP DP  RH WIND       PRES   REMARKS
ALGONA *       CLOUDY    16  12  86 NW10      30.21S WCI   3
CLARION *      CLOUDY    14  12  92 W9        30.22R WCI   2
ESTHERVILLE    FLURRIES  13  10  88 NW9       30.21R WCI   1
FORT DODGE *   CLOUDY    16  10  79 W6        30.23F WCI   7
MASON CITY     CLOUDY    13   9  84 W13       30.21S WCI  -2
FOREST CITY *  FLURRIES  14  12  92 W8        30.20R WCI   3
WEBSTER CITY * CLOUDY    16  14  93 W8        30.20S WCI   5
IOWA FALLS *   CLOUDY    18  14  86 W9        30.21S WCI   6
$$

IAZ007>011-017>019-026>030-037>042-050>054-066-120900-
   NORTHEAST IOWA

CITY           SKY/WX    TMP DP  RH WIND       PRES   REMARKS
CEDAR RAPIDS   CLOUDY    18  16  92 W5        30.20F WCI  11
CHARLES CITY * CLOUDY    14   9  79 W9        30.19F WCI   2
CLINTON *      CLEAR     12   7  80 SW6       30.21F WCI   3
DECORAH *      FLURRIES  14   7  73 CALM      30.16F
DUBUQUE        CLOUDY    15   6  67 W7        30.17F WCI   5
MONTICELLO *   CLOUDY    16   9  73 CALM      30.20F
OELWEIN *      CLOUDY    12   7  79 NW5       30.19S WCI   4
WATERLOO       CLOUDY    13   7  77 CALM      30.20F
$$

IAZ064-065-067-068-078-120900-
   EAST CENTRAL IOWA

CITY           SKY/WX    TMP DP  RH WIND       PRES   REMARKS
DAVENPORT      CLOUDY    18  12  77 W6        30.22F WCI  10
IOWA CITY      CLOUDY    18  16  92 CALM      30.24F
MT. PLEASANT * CLOUDY    23  19  86 W3        30.23S
MUSCATINE *    CLOUDY    21  18  86 W5        30.25S WCI  15
QUAD CITIES    CLOUDY    21  13  71 W6        30.22F WCI  13
$$

IAZ062-063-075>077-085>089-095>099-120900-
   SOUTHEAST IOWA

CITY           SKY/WX    TMP DP  RH WIND       PRES   REMARKS
BURLINGTON     CLOUDY    21  18  88 NW3       30.22F
FAIRFIELD *    CLOUDY    19  16  86 SW5       30.22F WCI  13
FORT MADISON * CLOUDY    19  18  93 CALM      30.23F
KEOKUK *       CLOUDY    19  19 100 CALM      30.22F
OSKALOOSA *    CLOUDY    19  18  93 SW3       30.23R
CENTERVILLE *  CLOUDY    19  18  93 CALM      30.22S
OTTUMWA        CLOUDY    18  17  96 CALM      30.22S
WASHINGTON *   CLOUDY    19  18  93 CALM      30.24S
$$

ABBREVIATIONS USED IN REMARKS
   TC - TEMPERATURES IN CELSIUS
  WCI - WIND CHILL INDEX
   HX - HEAT INDEX
  VSB - VISIBILITY
$$





USA.gov is the U.S. government's official web portal to all federal, state and local government web resources and services.